When you browse on this site, cookies collect data to enhance your experience and personalize the content and advertising you see.
Visit our Privacy Policy to learn more. By continuing to use the site, you agree to this use of cookies and data.
  • In United Kingdom
  • List of Countries
  • For 7 days
  • Water Temperature
  • Weather Map
  • Weather Widgets
  • user-avatar
    Login

    Hourly Weather Balmazujvaros

    Today, 22 September, Sunday

    Time Temperature Precipitation Wind Pressure Humidity
    00:00 +12°C° 0 mm 1 mps 760 mmHg 50%
    01:00 +11°C° 0 mm 1 mps 760 mmHg 51%
    02:00 +11°C° 0 mm 1 mps 759 mmHg 52%
    03:00 +10°C° 0 mm 1 mps 759 mmHg 53%
    04:00 +10°C° 0 mm 1 mps 759 mmHg 54%
    05:00 +11°C° 0 mm 1 mps 759 mmHg 52%
    06:00 +12°C° 0 mm 1 mps 759 mmHg 50%
    07:00 +13°C° 0 mm 1 mps 759 mmHg 48%
    08:00 +15°C° 0 mm 1 mps 759 mmHg 43%
    09:00 +18°C° 0 mm 1 mps 759 mmHg 38%
    10:00 +20°C° 0 mm 1 mps 758 mmHg 33%
    11:00 +21°C° 0 mm 1 mps 758 mmHg 30%
    12:00 +23°C° 0 mm 1 mps 757 mmHg 28%
    13:00 +24°C° 0 mm 1 mps 756 mmHg 26%
    14:00 +24°C° 0 mm 1 mps 756 mmHg 26%
    15:00 +24°C° 0 mm 1 mps 755 mmHg 26%
    16:00 +24°C° 0 mm 1 mps 754 mmHg 26%
    17:00 +22°C° 0 mm 1 mps 755 mmHg 29%
    18:00 +19°C° 0 mm 1 mps 755 mmHg 33%
    19:00 +16°C° 0 mm 1 mps 755 mmHg 37%
    20:00 +16°C° 0 mm 1 mps 755 mmHg 39%
    21:00 +15°C° 0 mm 2 mps 754 mmHg 40%
    22:00 +15°C° 0 mm 2 mps 754 mmHg 42%
    23:00 +15°C° 0 mm 2 mps 754 mmHg 43%

    Tomorrow, 23 September, Monday

    Time Temperature Precipitation Wind Pressure Humidity
    00:00 +15°C° 0 mm 2 mps 754 mmHg 44%
    01:00 +14°C° 0 mm 2 mps 754 mmHg 45%
    02:00 +14°C° 0 mm 2 mps 754 mmHg 46%
    03:00 +14°C° 0 mm 2 mps 753 mmHg 47%
    04:00 +14°C° 0 mm 2 mps 753 mmHg 47%
    05:00 +15°C° 0 mm 1 mps 753 mmHg 47%
    06:00 +15°C° 0 mm 1 mps 753 mmHg 47%
    07:00 +15°C° 0 mm 1 mps 753 mmHg 47%
    08:00 +15°C° 0.2 mm 1 mps 753 mmHg 51%
    09:00 +16°C° 0.2 mm 1 mps 753 mmHg 55%
    10:00 +16°C° 0.2 mm 2 mps 753 mmHg 59%
    11:00 +16°C° 0.3 mm 2 mps 753 mmHg 63%
    12:00 +16°C° 0.3 mm 2 mps 753 mmHg 67%
    13:00 +16°C° 0.3 mm 2 mps 753 mmHg 71%
    14:00 +16°C° 0 mm 2 mps 753 mmHg 74%
    15:00 +16°C° 0 mm 2 mps 752 mmHg 77%
    16:00 +15°C° 0 mm 1 mps 752 mmHg 80%
    17:00 +15°C° 0 mm 1 mps 752 mmHg 82%
    18:00 +14°C° 0 mm 1 mps 753 mmHg 84%
    19:00 +14°C° 0 mm 1 mps 753 mmHg 87%
    20:00 +14°C° 0 mm 1 mps 753 mmHg 88%
    21:00 +13°C° 0 mm 1 mps 753 mmHg 89%
    22:00 +13°C° 0 mm 1 mps 753 mmHg 90%
    23:00 +13°C° 0 mm 1 mps 753 mmHg 89%

    Day after tomorrow, 24 September, Tuesday

    Time Temperature Precipitation Wind Pressure Humidity
    00:00 +13°C° 0 mm 1 mps 752 mmHg 88%
    01:00 +13°C° 0 mm 1 mps 752 mmHg 88%
    02:00 +13°C° 0 mm 2 mps 752 mmHg 85%
    03:00 +13°C° 0 mm 2 mps 752 mmHg 82%
    04:00 +13°C° 0 mm 2 mps 751 mmHg 80%
    05:00 +13°C° 0 mm 2 mps 751 mmHg 76%
    06:00 +14°C° 0 mm 2 mps 751 mmHg 72%
    07:00 +13°C° 0 mm 3 mps 751 mmHg 68%
    08:00 +16°C° 0 mm 3 mps 751 mmHg 62%
    09:00 +17°C° 0 mm 3 mps 751 mmHg 55%
    10:00 +19°C° 0 mm 3 mps 751 mmHg 49%
    11:00 +21°C° 0 mm 3 mps 751 mmHg 44%
    12:00 +24°C° 0 mm 3 mps 750 mmHg 39%
    13:00 +25°C° 0 mm 3 mps 750 mmHg 35%
    14:00 +25°C° 0 mm 3 mps 750 mmHg 36%
    15:00 +25°C° 0 mm 3 mps 750 mmHg 37%
    16:00 +25°C° 0 mm 3 mps 749 mmHg 38%
    17:00 +22°C° 0 mm 3 mps 749 mmHg 43%
    18:00 +21°C° 0 mm 3 mps 750 mmHg 48%
    19:00 +19°C° 0 mm 3 mps 750 mmHg 54%
    20:00 +18°C° 0 mm 3 mps 750 mmHg 60%
    21:00 +17°C° 0 mm 4 mps 750 mmHg 66%
    22:00 +15°C° 0 mm 4 mps 750 mmHg 72%
    23:00 +15°C° 0 mm 4 mps 750 mmHg 75%

    25 September, Wednesday

    Time Temperature Precipitation Wind Pressure Humidity
    00:00 +15°C° 0 mm 4 mps 750 mmHg 78%
    01:00 +16°C° 0 mm 3 mps 750 mmHg 81%
    02:00 +16°C° 0.5 mm 3 mps 750 mmHg 84%
    03:00 +14°C° 0.5 mm 3 mps 750 mmHg 88%
    04:00 +14°C° 0.5 mm 3 mps 750 mmHg 91%
    05:00 +14°C° 1.5 mm 3 mps 750 mmHg 92%
    06:00 +14°C° 1.5 mm 3 mps 750 mmHg 92%
    07:00 +14°C° 1.5 mm 3 mps 750 mmHg 93%
    08:00 +14°C° 0.6 mm 3 mps 750 mmHg 91%
    09:00 +14°C° 0.6 mm 3 mps 750 mmHg 90%
    10:00 +16°C° 0.6 mm 3 mps 750 mmHg 89%
    11:00 +16°C° 0.1 mm 3 mps 750 mmHg 86%
    12:00 +17°C° 0.1 mm 3 mps 750 mmHg 84%
    13:00 +17°C° 0.1 mm 2 mps 749 mmHg 82%
    14:00 +18°C° 0 mm 2 mps 749 mmHg 79%
    15:00 +18°C° 0 mm 2 mps 749 mmHg 76%
    16:00 +19°C° 0 mm 2 mps 749 mmHg 73%
    17:00 +18°C° 0 mm 2 mps 749 mmHg 77%
    18:00 +17°C° 0 mm 2 mps 749 mmHg 81%
    19:00 +16°C° 0 mm 2 mps 749 mmHg 85%
    20:00 +16°C° 0.2 mm 2 mps 749 mmHg 85%
    21:00 +16°C° 0.2 mm 2 mps 750 mmHg 86%
    22:00 +16°C° 0.2 mm 2 mps 750 mmHg 87%
    23:00 +16°C° 0.1 mm 2 mps 750 mmHg 87%

    26 September, Thursday

    Time Temperature Precipitation Wind Pressure Humidity
    00:00 +16°C° 0.1 mm 2 mps 750 mmHg 87%
    01:00 +15°C° 0.1 mm 2 mps 749 mmHg 88%
    02:00 +15°C° 0 mm 2 mps 750 mmHg 88%
    03:00 +15°C° 0 mm 2 mps 750 mmHg 88%
    04:00 +15°C° 0 mm 1 mps 750 mmHg 88%
    05:00 +15°C° 0.3 mm 2 mps 750 mmHg 89%
    06:00 +15°C° 0.3 mm 2 mps 750 mmHg 90%
    07:00 +14°C° 0.3 mm 3 mps 750 mmHg 91%
    08:00 +15°C° 0.6 mm 2 mps 751 mmHg 89%
    09:00 +16°C° 0.6 mm 1 mps 751 mmHg 88%
    10:00 +16°C° 0.6 mm 1 mps 751 mmHg 86%
    11:00 +18°C° 0.5 mm 1 mps 751 mmHg 80%
    12:00 +19°C° 0.5 mm 1 mps 751 mmHg 74%
    13:00 +19°C° 0.5 mm 2 mps 751 mmHg 68%
    14:00 +19°C° 0.3 mm 2 mps 751 mmHg 69%
    15:00 +19°C° 0.3 mm 2 mps 751 mmHg 70%
    16:00 +19°C° 0.3 mm 2 mps 751 mmHg 71%
    17:00 +18°C° 0 mm 1 mps 752 mmHg 76%
    18:00 +16°C° 0 mm 1 mps 752 mmHg 81%
    19:00 +15°C° 0 mm 1 mps 752 mmHg 85%
    20:00 +14°C° 0 mm 1 mps 753 mmHg 86%
    21:00 +13°C° 0 mm 0 mps 753 mmHg 86%
    22:00 +13°C° 0 mm 0 mps 753 mmHg 87%
    23:00 +13°C° 0 mm 0 mps 753 mmHg 87%

    27 September, Friday

    Time Temperature Precipitation Wind Pressure Humidity
    00:00 +12°C° 0 mm 0 mps 753 mmHg 87%
    01:00 +12°C° 0 mm 0 mps 754 mmHg 88%
    02:00 +12°C° 0 mm 0 mps 754 mmHg 88%
    03:00 +13°C° 0 mm 1 mps 754 mmHg 89%
    04:00 +13°C° 0 mm 1 mps 754 mmHg 90%
    05:00 +13°C° 0 mm 1 mps 754 mmHg 88%
    06:00 +14°C° 0 mm 1 mps 754 mmHg 87%
    07:00 +14°C° 0 mm 2 mps 754 mmHg 85%
    08:00 +16°C° 0 mm 2 mps 755 mmHg 79%
    09:00 +17°C° 0 mm 2 mps 755 mmHg 73%
    10:00 +18°C° 0 mm 3 mps 755 mmHg 67%
    11:00 +20°C° 0 mm 3 mps 755 mmHg 61%
    12:00 +22°C° 0 mm 3 mps 754 mmHg 55%
    13:00 +24°C° 0 mm 3 mps 754 mmHg 48%
    14:00 +24°C° 0 mm 3 mps 754 mmHg 50%
    15:00 +24°C° 0 mm 2 mps 754 mmHg 51%
    16:00 +24°C° 0 mm 1 mps 754 mmHg 52%
    17:00 +22°C° 0 mm 1 mps 754 mmHg 55%
    18:00 +20°C° 0 mm 2 mps 754 mmHg 57%
    19:00 +19°C° 0 mm 2 mps 754 mmHg 60%
    20:00 +18°C° 0 mm 2 mps 754 mmHg 61%
    21:00 +18°C° 0 mm 2 mps 755 mmHg 62%
    22:00 +17°C° 0 mm 2 mps 755 mmHg 63%
    23:00 +17°C° 0 mm 2 mps 754 mmHg 64%
    Show more